Home   Weather   Middleborough   Past weeks
Flag for USA

Past Weather in Middleborough, Massachusetts, USA — Yesterday and Last 2 Weeks

Now
72 °F

Light rain. Mostly cloudy.


Feels Like: 71 °F
Forecast: 76 / 61 °F
Wind: 8 mph from South

Location: Taunton Municipal Airport

Current Time: Jun 25, 2019 at 3:59:18 pm

Latest Report: Jun 25, 2019 at 3:03 pm


Visibility: 10 mi

Pressure: 29.90 "Hg

Humidity: 84%

Dew Point: 67 °F

Location of MiddleboroughLocation

Past Weather in Middleborough — Graph

°F

Middleborough Temperature Yesterday

Maximum temperature yesterday: 88 °F (at 2:52 pm)
Minimum temperature yesterday: 55 °F (at 4:52 am)
Average temperature yesterday: 73 °F

High & Low Weather Summary for the Past Weeks

 TemperatureHumidityPressure
High88 °F (Jun 24, 2:52 pm)94% (Jun 17, 6:20 am)30.18 "Hg (Jun 17, 6:20 am)
Low48 °F (Jun 12, 3:52 am)28% (Jun 24, 12:52 pm)29.40 "Hg (Jun 21, 2:52 am)
Average67 °F76%29.84 "Hg
* Reported Jun 10 2:52 pm — Jun 25 2:33 pm, Middleborough. Weather by CustomWeather, © 2019

Note: Actual official high and low records may vary slightly from our data, if they occured in-between our weather recording intervals... More about our weather records

Advertising

Middleborough Weather History for the Previous 24 Hours

Scroll right to see more
 ConditionsComfort  
Time TempWeatherWind HumidityBarometerVisibility
2:33 pm
Tue, Jun 25
72 °FLight rain. Cloudy.7 mph87%29.90 "Hg10 mi
1:52 pm72 °FLight rain. Fog.6 mph87%29.90 "Hg5 mi
1:39 pm72 °FLight rain. Mostly cloudy.6 mph87%29.90 "Hg7 mi
12:52 pm74 °FLight rain. Mostly cloudy.9 mph79%29.90 "Hg8 mi
11:52 am77 °FPartly sunny.9 mph74%29.90 "Hg10 mi
10:52 am76 °FMostly cloudy.8 mph74%29.90 "Hg10 mi
10:17 am76 °FPartly sunny.8 mph77%29.90 "Hg10 mi
9:52 am76 °FScattered clouds.6 mph74%29.89 "Hg10 mi
9:26 am74 °FScattered clouds.8 mph76%29.91 "Hg10 mi
9:01 am74 °FPartly sunny.5 mph79%29.90 "Hg10 mi
8:06 am70 °FPartly sunny.3 mph84%29.91 "Hg8 mi
7:52 am70 °FBroken clouds.5 mph84%29.90 "Hg8 mi
7:22 am68 °FScattered clouds.7 mph87%29.90 "Hg8 mi
6:52 am67 °FPartly sunny.5 mph90%29.90 "Hg8 mi
6:30 am67 °FPassing clouds.5 mph87%29.90 "Hg9 mi
5:52 am65 °FSunny.5 mph91%29.89 "Hg8 mi
4:52 am63 °FClear.6 mph90%29.89 "Hg10 mi
3:52 am63 °FClear.6 mph90%29.88 "Hg10 mi
2:52 am63 °FClear.6 mph87%29.87 "Hg10 mi
1:52 am64 °FClear.6 mph84%29.86 "Hg10 mi
12:52 am59 °FClear.No wind90%29.85 "Hg10 mi
11:52 pm
Mon, Jun 24
61 °FClear.No wind87%29.85 "Hg10 mi
10:52 pm62 °FClear.No wind90%29.85 "Hg10 mi
9:52 pm65 °FClear.3 mph87%29.84 "Hg10 mi
8:52 pm69 °FClear.3 mph76%29.82 "Hg10 mi
7:52 pm74 °FSunny.No wind62%29.82 "Hg10 mi
6:52 pm80 °FSunny.5 mph49%29.81 "Hg10 mi
5:52 pm82 °FScattered clouds.7 mph51%29.81 "Hg10 mi
4:52 pm84 °FPassing clouds.7 mph40%29.80 "Hg10 mi
3:52 pm87 °FScattered clouds.7 mph31%29.80 "Hg10 mi
Weather by CustomWeather, © 2019

See weather overview